map of PAC home
Great Circle Mapper logo
PAC - Airport
Location
City:  Panamá City, Panamá, Panamá
Name:Paitilla-Marcos A. Gelabert
ICAO:MPMG
IATA:PAC

Details
Type:Airport (Aerodrome, Airfield)
Use:Public/Civil, International (customs port of entry)
Latitude:8°58'24"N (8.973339)
Longitude:79°33'20"W (-79.555582)
Datum:WGS 1984
Elevation:31 ft (9 m)
Variation:4.20°W (WMM2015 magnetic declination)
-0.14° annual change
Runways:1
Longest:5906 × 98 ft (1800 × 30 m), paved

Time
Time Zone:UTC-5
Local Time:

Weather
METAR:MPMG 261100Z 00000KT 9000 FEW008 FEW018 25/24 Q1010 NOSIG RMK HZ ALQDS ST SE

Related Locations
Nearby:
Farthest:CCK: 12110 mi / 19489 km
West Island (Pulau Panjang) [Cocos (Keeling) Islands], CC

Find:

   beyond  
but within

Other Information
Maps:
NOTAMs:
Links:
Sources:

  
flag of Panamá
flag of Panamá
  

Sectional Chart

Flight Planning
at skyvector.com

Satellite Image

Google Maps Satellite view

 

Copyright © 2004-2016 Karl L. Swartz. All rights reserved.
The Great Circle Mapper name and logo are trademarks of the Great Circle Mapper.
All other trademarks mentioned herein belong to their respective owners.
Please see credits for attibutions and further copyright information.

  Follow gcmap on Facebook Follow gcmap on Twitter Follow gcmap on Google+ GCmap on LinkedIn

hCard Microformat

Geo Microformat